Flag for U.S.A. Weather past 2 weeks in Durham, North Carolina, U.S.A.

Now
27 °F

Partly sunny.


Feels Like: 16 °F
Forecast: 24 / 36 °F
Wind: 13 mph from East

Location: Raleigh-Durham International Airport

Current Time: Feb 28, 2015 at 9:31:01 AM

Latest Report: Feb 28, 2015 at 8:51 AM


Visibility: 10 mi

Pressure: 30.79 "Hg

Humidity: 58%

Dew point: 14 °F

Location of DurhamLocation

Historic Weather in Durham — Graph

°F

Durham temperature yesterday

Maximum temperature yesterday: 44 °F (at 2:51 PM)
Minimum temperature yesterday: 23 °F (at 6:51 AM)
Average temperature yesterday: 34 °F

Past Weeks' High & Low Weather Summary

 TemperatureHumidityPressure
High57 °F (Feb 22, 12:51 PM)96% (Feb 27, 7:51 AM)30.75 "Hg (Feb 27, 7:51 AM)
Low7 °F (Feb 20, 5:51 AM)19% (Feb 15, 2:51 PM)29.62 "Hg (Feb 14, 6:51 PM)
Average29 °F59%30.15 "Hg
* Reported Feb 13 7:51 AM — Feb 28 7:51 AM, Durham, Weather by CustomWeather, © 2015

Note: Actual official high and low records may vary slightly from our data, if they occured in-between our weather recording intervals... More about our weather records

Advertising

Durham weather history for previous 24 hours

 ConditionsComfort  
Time TempWeatherWind HumidityBarometerVisibility
7:51 AM
Sat, Feb 28
26 °FPartly sunny.13 mph63%30.75 "Hg10 mi
6:51 AM26 °FPartly sunny.10 mph69%30.72 "Hg8 mi
5:51 AM26 °FPassing clouds.8 mph69%30.70 "Hg8 mi
4:51 AM27 °FPassing clouds.9 mph69%30.66 "Hg8 mi
3:51 AM27 °FPassing clouds.8 mph72%30.63 "Hg7 mi
2:51 AM27 °FPassing clouds.8 mph75%30.62 "Hg7 mi
1:51 AM28 °FClear.9 mph75%30.61 "Hg7 mi
12:51 AM29 °FClear.6 mph64%30.60 "Hg10 mi
11:51 PM
Fri, Feb 27
32 °FPassing clouds.6 mph50%30.57 "Hg10 mi
10:51 PM33 °FPassing clouds.8 mph49%30.56 "Hg10 mi
9:51 PM34 °FPassing clouds.6 mph50%30.53 "Hg10 mi
8:51 PM35 °FPassing clouds.5 mph50%30.51 "Hg10 mi
7:51 PM36 °FPassing clouds.3 mph52%30.48 "Hg10 mi
6:51 PM37 °FPassing clouds.5 mph52%30.47 "Hg10 mi
5:51 PM40 °FScattered clouds.7 mph49%30.44 "Hg10 mi
4:51 PM44 °FScattered clouds.6 mph41%30.42 "Hg10 mi
3:51 PM44 °FScattered clouds.6 mph41%30.40 "Hg10 mi
2:51 PM44 °FScattered clouds.No wind43%30.39 "Hg10 mi
1:51 PM42 °FScattered clouds.5 mph47%30.39 "Hg10 mi
12:51 PM42 °FPartly sunny.6 mph51%30.40 "Hg10 mi
11:51 AM42 °FPartly sunny.5 mph51%30.40 "Hg10 mi
10:51 AM40 °FPartly sunny.5 mph55%30.39 "Hg10 mi
9:51 AM36 °FScattered clouds.7 mph67%30.38 "Hg10 mi
Weather by CustomWeather, © 2015

See weather overviewHow to use our weather pages